Debrecen, Hungary

3:15 PM CET on December 17, 2017 (GMT +0100)
Debrecen

Weather History for LHDC - November, 2012

Change the Weather History Date:

Wednesday, November 21, 2012

  Actual Average Record
Temperature  
Mean Temperature 40 °F -  
Max Temperature 52 °F 40 °F - ()
Min Temperature 27 °F 29 °F - ()
Degree Days  
Heating Degree Days 26    
Moisture  
Dew Point 37 °F    
Average Humidity 87    
Maximum Humidity 100    
Minimum Humidity 61    
Precipitation  
Precipitation 0.00 in 0.06 in - ()
Sea Level Pressure  
Sea Level Pressure 30.23 in    
Wind  
Wind Speed 2 mph ()    
Max Wind Speed 6 mph    
Max Gust Speed -    
Visibility 2.1 miles    
Events Fog    
T = Trace of Precipitation, MM = Missing Value Source: Averaged Metar Reports

Daily Weather History Graph

Daily Weather History Graph

Search for Another Location

Airport or City:

Trip Planner

Search our weather history database for the weather conditions in past years. The results will help you decide how hot, cold, wet, or windy it might be!

Date:

Astronomy

Nov. 21, 2012 Rise Set
Actual Time 6:47 AM CET 3:51 PM CET
Civil Twilight 6:13 AM CET 4:25 PM CET
Nautical Twilight 5:35 AM CET 5:03 PM CET
Astronomical Twilight 4:58 AM CET 5:39 PM CET
Moon 12:23 PM CET (11/21) No Moon Set
Length of Visible Light 10h 12m
Length of Day
9h 03m
First Quarter, 59% of the Moon is Illuminated
Nov 21
First Quarter
Nov 28
Full
Dec 6
Last Quarter
Dec 13
New
Dec 20
First Quarter

Hourly Weather History & Observations

Time (CET) Temp. Windchill Dew Point Humidity Pressure Visibility Wind Dir Wind Speed Gust Speed Precip Events Conditions
1:00 AM 36 °F - 35 °F 97% 30.25 in - East 2.2 mph - -  
5:15 AM 28.4 °F - 28.4 °F 100% 30.24 in 0.2 mi SW 1.2 mph - N/A Fog Light Freezing Fog
5:45 AM 28.4 °F - 28.4 °F 100% 30.24 in 0.2 mi Calm Calm - N/A Fog Light Freezing Fog
6:00 AM - - - N/A% - 0.5 mi Variable 2.3 mph - N/A Fog Fog
6:15 AM 28.4 °F - 26.6 °F 93% 30.24 in 0.2 mi Calm Calm - N/A Fog Light Freezing Fog
6:45 AM 28.4 °F - 26.6 °F 93% 30.24 in 0.2 mi Calm Calm - N/A Fog Light Freezing Fog
7:00 AM 28 °F - 27 °F 96% 30.26 in 0 mi Calm Calm - - Fog Partial Fog
7:15 AM 28.4 °F 24.6 °F 28.4 °F 100% 30.24 in 0.5 mi NE 3.5 mph - N/A Fog Light Freezing Fog
7:38 AM 32.0 °F - 32.0 °F 100% 30.27 in 0.9 mi NNE 2.3 mph - N/A   Partly Cloudy
7:45 AM 32.0 °F - 32.0 °F 100% 30.24 in 0.9 mi NNE 2.3 mph - N/A   Partly Cloudy
8:00 AM - - - N/A% - 1.6 mi Variable 2.3 mph - N/A   Scattered Clouds
8:15 AM 33.8 °F 30.8 °F 33.8 °F 100% 30.24 in 1.0 mi ENE 3.5 mph - N/A   Partly Cloudy
8:45 AM 37.4 °F 34.9 °F 37.4 °F 100% 30.24 in 1.1 mi East 3.5 mph - N/A   Partly Cloudy
9:00 AM - - - N/A% - 1.2 mi Variable 3.5 mph - N/A   Mist
9:15 AM 39.2 °F 35.0 °F 37.4 °F 93% 30.24 in 1.4 mi ENE 5.8 mph - N/A   Partly Cloudy
9:45 AM 39.2 °F 37.0 °F 39.2 °F 100% 30.24 in 1.6 mi ENE 3.5 mph - N/A   Partly Cloudy
10:15 AM 41.0 °F - 39.2 °F 93% 30.24 in 1.9 mi ENE 2.3 mph - N/A   Partly Cloudy
10:45 AM 42.8 °F - 39.2 °F 87% 30.24 in 2.5 mi East 2.3 mph - N/A   Partly Cloudy
11:15 AM 46.4 °F - 41.0 °F 81% 30.24 in 3.1 mi East 1.2 mph - N/A   Partly Cloudy
11:45 AM 48.2 °F - 41.0 °F 76% 30.24 in 3.7 mi SE 1.2 mph - N/A   Partly Cloudy
12:00 PM - - - N/A% - 3.1 mi Variable 3.5 mph - N/A   Mist
12:15 PM 50.0 °F - 41.0 °F 71% 30.21 in 3.7 mi Calm Calm - N/A   Partly Cloudy
12:45 PM 51.8 °F - 41.0 °F 67% 30.21 in 3.7 mi ESE 1.2 mph - N/A   Partly Cloudy
1:00 PM 51 °F - 42 °F 61% 30.23 in 4 mi ESE 2.2 mph - -   Partly Cloudy
1:15 PM 51.8 °F - 42.8 °F 71% 30.21 in 3.7 mi Calm Calm - N/A   Partly Cloudy
1:45 PM 51.8 °F - 41.0 °F 67% 30.21 in 3.7 mi South 2.3 mph - N/A   Partly Cloudy
2:15 PM 51.8 °F - 42.8 °F 71% 30.21 in 3.7 mi SSW 2.3 mph - N/A   Partly Cloudy
2:45 PM 51.8 °F - 42.8 °F 71% 30.21 in 3.7 mi South 1.2 mph - N/A   Partly Cloudy
3:15 PM 50.0 °F - 42.8 °F 76% 30.21 in 3.7 mi SW 1.2 mph - N/A   Partly Cloudy
3:45 PM 48.2 °F - 42.8 °F 82% 30.21 in 3.1 mi SSW 2.3 mph - N/A   Partly Cloudy
4:15 PM 46.4 °F - 41.0 °F 81% 30.21 in 2.5 mi SW 2.3 mph - N/A   Partly Cloudy
4:45 PM 42.8 °F - 41.0 °F 93% 30.21 in 2.5 mi SW 2.3 mph - N/A   Partly Cloudy
5:05 PM - - - N/A% - - North - - N/A   Unknown
7:00 PM 39 °F - 39 °F 98% 30.24 in - Calm Calm - -  
10:14 PM 33.8 °F - 33.8 °F 100% 30.24 in - North - - N/A   Unknown